Hourly Data Report for May 02, 2021

CARIBOU POINT (AUT)
NOVA SCOTIA
Current Station Operator: ECCC - MSC

45°46'00.000" N
62°41'00.000" W
2.40 m
8200774
71415
WBK

Download Data

Hourly Data (May 2021)
Hourly Data Report for May 2, 2021
TIME
LST
Temp Definition
°C
Dew Point Definition
°C
Rel Hum Definition
%
Precip. Amount Definition
mm

Wind Dir Definition
10's deg

Wind Spd Definition
km/h
Visibility Definition
km
Stn Press Definition
kPa
Hmdx Definition


Wind Chill Definition


Weather Definition


00:00 5.7 1.4 74 0.0 29 23   99.98     LegendNANA
01:00 5.2 -0.8 65 0.0 25 8   99.98     LegendNANA
02:00 4.5 -1.5 65 0.0 27 16   100.00     LegendNANA
03:00 3.8 -2.8 62 0.0 25 12   100.04     LegendNANA
04:00 4.2 -4.0 55 0.0 25 15   100.07     LegendNANA
05:00 4.5 -4.5 52 0.0 25 14   100.10     LegendNANA
06:00 4.5 -2.5 60 0.0 22 12   100.19     LegendNANA
07:00 6.5 -1.6 56 0.0 22 14   100.21     LegendNANA
08:00 6.8 -0.3 60 0.0 22 15   100.25     LegendNANA
09:00 8.2 -1.0 52 0.0 22 15   100.20     LegendNANA
10:00 9.1 1.1 57 0.0 21 7   100.13     LegendNANA
11:00 8.7 -0.4 53 0.0 22 15   100.12     LegendNANA
12:00 11.5 -0.7 43 0.0 22 20   100.05     LegendNANA
13:00 11.3 -1.1 42 0.0 25 24   99.97     LegendNANA
14:00 13.3 1.9 46 0.0 25 18   99.88     LegendNANA
15:00 11.9 2.4 52 0.0 24 17   99.82     LegendNANA
16:00 12.1 2.4 51 0.0 25 14   99.77     LegendNANA
17:00 12.4 2.7 52 0.0 25 18   99.72     LegendNANA
18:00 11.9 2.9 54 0.0 24 9   99.70     LegendNANA
19:00 11.3 3.2 57 0.0 24 8   99.75     LegendNANA
20:00 10.0 3.5 64 0.0 23 7   99.81     LegendNANA
21:00 8.1 3.7 74 0.0 26 7   99.84     LegendNANA
22:00 7.8 3.6 75 0.0 22 9   99.85     LegendNANA
23:00 7.3 3.7 78 0.0 22 13   99.85     LegendNANA

Notes on Data Quality.

Legend

  • E = Estimated
  • M = Missing
  • NA = Not Available*
  • [empty] = Indicates an unobserved value
Date modified: